Location: Seven Kings
(51.5667°N, 0.1000°E)
Time: 03:26:46
(UTC+00:00)

Cosmos 1777 Rocket - Pass Details

Date: 29 October 2020
Orbit: 759 x 775 km, 74.0° (Epoch: 27 November)

Event Time Altitude Azimuth Distance (km) Brightness Sun altitude
Rises 18:29:38 0° 337° (NNW) 3,231 7.6 -17.9°
Reaches altitude 10° 18:32:06 10° 343° (NNW) 2,302 6.7 -18.3°
Maximum altitude 18:37:09 48° 58° (ENE) 988 4.2 -19.1°
Enters shadow 18:38:38 38° 103° (ESE) 1,162 4.4 -19.3°
